Tracking 21092 objects as of 14-Aug-2020
HD Live streaming from Space Station
objects crossing your sky now
Track the most recent launched group of Starlink satellites

COSMOS 1607 FUEL CORE

Track COSMOS 1607 FUEL CORE now!
10-day predictions


NORAD ID: 15503
Int'l Code: 1984-112C
Perigee: 915.1 km
Apogee: 974.1 km
Inclination: 65.0 °
Period: 103.8 minutes
Semi major axis: 7315 km
RCS: 0.1774 m2 (medium)
Launch date: October 31, 1984
Source: Commonwealth of Independent States (former USSR) (CIS)
Launch site: TYURATAM MISSILE AND SPACE COMPLEX (TTMTR)

Note: This is SATELLITE DEBRIS
aabbcc
Your satellite tracking list
Your tracking list is empty




NASA's NSSDC Master Catalog

Two Line Element Set (TLE):
1 15503U 84112C   20226.65488703 -.00000091  00000-0 -14953-5 0  9992
2 15503  64.9957 317.8620 0040319 302.0386  57.6762 13.87494006800308
Source of the keplerian elements: AFSPC